Regional Weather Roundup
Issued by NWS

Home | Current Version | Previous Version | Text Only | Print | Product List | Glossary Off
Versions: 1 2 3 4 5 6 7 8 9 10 11 12 13 14 15 16 17 18 19 20 21 22 23 24 25 26 27 28 29 30 31 32 33 34 35 36 37 38 39 40 41 42 43 44 45 46 47 48 49 50

000
ASUS43 KDMX 280607
RWRIA

WEATHER ROUNDUP FOR IOWA
NATIONAL WEATHER SERVICE DES MOINES IA
100 AM CDT MON JUL 28 2014

NOTE: "FAIR" INDICATES FEW OR NO CLOUDS BELOW 12,000 FEET WITH NO
SIGNIFICANT WEATHER AND/OR OBSTRUCTIONS TO VISIBILITY.

* - THESE STATIONS ARE NOT NWS STATIONS...THUS NOT UNDER NWS
QUALITY CONTROL.  THEY ALSO DO NOT REPORT WEATHER SUCH
AS PRECIPITATION OR FOG.

IAZ001>003-012>014-020>022-031>034-043>046-280700-
   NORTHWEST IOWA

CITY           SKY/WX    TMP DP  RH WIND       PRES   REMARKS
CARROLL *      CLEAR     61  57  88 NW12      30.16S
CHEROKEE *     CLEAR     60  57  92 NW7       30.19R
DENISON *      CLEAR     59  57  94 NW5       30.18R
LE MARS *      CLOUDY    59  57  94 NW5       30.22R
ORANGE CITY *  CLEAR     61  55  82 N7        30.21S
SHELDON *      CLEAR     55  55 100 W5        30.20R
SIOUX CITY     PTCLDY    59  56  89 W3        30.22R
6HR MIN TEMP:  59; 6HR MAX TEMP:  77;

SPENCER        CLEAR     59  55  87 N9        30.18S
6HR MIN TEMP:  59; 6HR MAX TEMP:  71;

STORM LAKE *   PTCLDY    57  57 100 NW6       30.20R
$$

IAZ055>058-069>071-079>083-090>094-280700-
   SOUTHWEST IOWA

CITY           SKY/WX    TMP DP  RH WIND       PRES   REMARKS
ATLANTIC *     CLEAR     61  57  88 N7        30.17R
AUDUBON *      CLEAR     63  59  88 NW7       30.19R
CLARINDA *     CLEAR     61  57  88 N5        30.18R
COUNCIL BLFS * CLOUDY    63  59  88 NW7       30.19S
CRESTON *      CLEAR     61  57  88 W8        30.15R
HARLAN  *      CLEAR     59  57  94 NW9       30.22R
LAMONI         CLEAR     63  56  78 NW9       30.13R
6HR MIN TEMP:  62; 6HR MAX TEMP:  75;

RED OAK *      CLEAR     63  57  82 NW7       30.18R
SHENANDOAH *   CLEAR     63  57  82 CALM      30.19R
$$

IAZ047>049-059>061-072>074-084-280700-
   CENTRAL IOWA

CITY           SKY/WX    TMP DP  RH WIND       PRES   REMARKS
AMES           CLEAR     63  59  87 NW9       30.11R
6HR MIN TEMP:  63; 6HR MAX TEMP:  72;

ANKENY *       CLEAR     64  59  82 NW9G15    30.11R
CHARITON *     CLEAR     63  57  82 NW12      30.10S
DES MOINES     CLEAR     66  57  72 N12G21    30.10R
6HR MIN TEMP:  66; 6HR MAX TEMP:  75;

GRINNELL*      CLEAR     63  59  88 NW7       30.08S
KNOXVILLE *    CLEAR     66  59  77 NW14G23   30.08R
MARSHALLTOWN   PTCLDY    63  60  90 NW12      30.08R
6HR MIN TEMP:  63; 6HR MAX TEMP:  72;

PELLA *        CLEAR     64  59  85 NW12      30.09S
PERRY *          N/A     61  59  94 NW6       30.14R
$$

IAZ004>006-015-016-023>025-035-036-280700-
   NORTH CENTRAL IOWA

CITY           SKY/WX    TMP DP  RH WIND       PRES   REMARKS
ALGONA *       MOCLDY    63  59  88 N8        30.15R
CLARION *      PTCLDY    63  61  94 N7        30.13R
ESTHERVILLE    PTCLDY    59  56  89 NW9       30.16S
6HR MIN TEMP:  59; 6HR MAX TEMP:  70;

FORT DODGE *   CLEAR     61  57  88 NW5       30.14R
MASON CITY     MOCLDY    62  59  90 N9        30.14R
6HR MIN TEMP:  62; 6HR MAX TEMP:  70;

FOREST CITY *  CLOUDY    63  61  94 N8        30.14R
IOWA FALLS *     N/A     64  59  82 N10       30.11S
$$

IAZ007>011-017>019-026>030-037>042-050>054-066-280700-
   NORTHEAST IOWA

CITY           SKY/WX    TMP DP  RH WIND       PRES   REMARKS
CEDAR RAPIDS   CLEAR     63  59  87 NW10      30.04R
6HR MIN TEMP:  63; 6HR MAX TEMP:  72;

CHARLES CITY * CLEAR     61  57  88 N7        30.11R
CLINTON *      CLEAR     63  57  82 N9        30.02R
DECORAH *      PTCLDY    59  55  88 N6        30.08R
DUBUQUE        CLOUDY    65  59  81 N13       30.03R
6HR MIN TEMP:  64; 6HR MAX TEMP:  72;

MONTICELLO *   CLOUDY    64  61  88 NW7       30.03R
OELWEIN *      PTCLDY    61  59  94 N10       30.08R
WATERLOO       MOCLDY    63  59  87 N12       30.07R
6HR MIN TEMP:  63; 6HR MAX TEMP:  74; 6HR PCP:  0.01;

$$

IAZ064-065-067-068-078-280700-
   EAST CENTRAL IOWA

CITY           SKY/WX    TMP DP  RH WIND       PRES   REMARKS
DAVENPORT      PTCLDY    63  60  90 N9        30.01R
6HR MIN TEMP:  62; 6HR MAX TEMP:  73;

IOWA CITY      CLEAR     66  61  84 NW10      30.04R
6HR MIN TEMP:  66; 6HR MAX TEMP:  73; 6HR PCP: TRACE;

MT. PLEASANT * CLEAR     66  58  77 NW10      30.02S
MUSCATINE *    CLEAR     64  61  88 NW8       30.01R
QUAD CITIES    MOCLDY    68  60  75 NW8       29.99R
6HR MIN TEMP:  67; 6HR MAX TEMP:  75;

$$

IAZ062-063-075>077-085>089-095>099-280700-
   SOUTHEAST IOWA

CITY           SKY/WX    TMP DP  RH WIND       PRES   REMARKS
BURLINGTON     CLEAR     66  60  81 NW9       30.01R
6HR MIN TEMP:  66; 6HR MAX TEMP:  75;

FAIRFIELD *    CLEAR     63  59  88 NW9       30.04S
FORT MADISON * CLEAR     66  61  82 NW10      30.03R
KEOKUK *       CLEAR     66  59  77 NW8       30.02R
OSKALOOSA *      N/A     63  59  88 NW9       30.07R
CENTERVILLE *  CLEAR     61  59  94 NW7       30.10S
OTTUMWA        CLEAR     64  58  80 NW13      30.06R
6HR MIN TEMP:  64; 6HR MAX TEMP:  73;

WASHINGTON *   CLEAR     64  61  88 NW10      30.03S
$$

ABBREVIATIONS USED IN REMARKS
   TC - TEMPERATURES IN CELSIUS
  WCI - WIND CHILL INDEX
   HX - HEAT INDEX
  VSB - VISIBILITY
$$




USA.gov is the U.S. government's official web portal to all federal, state and local government web resources and services.